Regional Weather Roundup
Issued by NWS

Home | Current Version | Previous Version | Graphics & Text | Print | Product List | Glossary On
Versions: 1 2 3 4 5 6 7 8 9 10 11 12 13 14 15 16 17 18 19 20 21 22 23 24 25 26 27 28 29 30 31 32 33 34 35 36 37 38 39 40 41 42 43 44 45 46 47 48 49 50
000
ASUS43 KBIS 232302
RWRND

NORTH DAKOTA REGIONAL WEATHER ROUNDUP
NATIONAL WEATHER SERVICE BISMARCK ND
500 PM CST MON JAN 23 2017

NOTE: "FAIR" INDICATES FEW OR NO CLOUDS BELOW 12,000 FEET WITH NO
SIGNIFICANT WEATHER AND/OR OBSTRUCTIONS TO VISIBILITY.


NDZ001>003-009>011-017-240000-
NORTHWEST NORTH DAKOTA

CITY           SKY/WX    TMP DP  RH WIND       PRES   REMARKS
WILLISTON      LGT SNOW  22  19  89 NW6       29.80R FOG     WCI  14
MINOT          MOCLDY    24  18  77 W15       29.76S WCI  11
$$

NDZ018>021-031>035-040>046-240000-
SOUTHWEST NORTH DAKOTA

CITY           SKY/WX    TMP DP  RH WIND       PRES   REMARKS
BISMARCK       CLOUDY    30  24  78 S3        29.78S
DICKINSON      CLOUDY    23  20  88 NW6       29.73R WCI  16
GARRISON         N/A     25  21  85 NW10      29.76R WCI  15
HETTINGER ARPT CLOUDY    23  21  92 NE5       29.74R FOG     WCI  17
$$

NDZ004>008-012>016-024-026-027-054-240000-
NORTHEAST NORTH DAKOTA

CITY           SKY/WX    TMP DP  RH WIND       PRES   REMARKS
GRAND FORKS    CLOUDY    31  22  69 SW8       29.81R
GRND FRKS AFB  CLOUDY    30  23  74 W7        29.81R
DEVILS LAKE    CLOUDY    24  20  84 W15       29.78R WCI  11
$$

NDZ022-023-025-028>030-036>039-047>053-240000-
SOUTHEAST NORTH DAKOTA

CITY           SKY/WX    TMP DP  RH WIND       PRES   REMARKS
FARGO          CLOUDY    34  27  75 NW6       29.83R
JAMESTOWN      CLOUDY    29  23  78 W7        29.79R
$$




USA.gov is the U.S. government's official web portal to all federal, state and local government web resources and services.